GFSFLT1_sfc_rhum_162.txt.gz
RH
49 61 63 67 74 80 76 76 74 82 83 88 84 85 88 90 92 92 90 76 86 89 93 94 87 90 88 88 90 88 92 90 91
49 50 56 71 80 79 81 74 81 84 86 92 84 77 88 90 94 92 94 84 85 87 93 85 90 92 91 91 89 87 91 96 88
53 53 55 74 80 83 81 72 84 81 88 86 78 88 85 80 91 92 86 88 92 90 94 92 95 93 89 89 89 90 92 93 90
52 55 58 74 77 82 85 83 86 90 93 94 94 96 97 94 95 94 94 94 91 93 92 94 94 87 82 87 80 85 94 94 91
62 70 75 74 73 79 89 91 92 94 85 89 94 94 92 94 96 95 93 94 93 92 95 90 88 85 76 82 80 87 92 92 85
62 67 73 83 84 84 92 92 93 93 91 92 93 93 95 95 94 97 94 88 81 94 92 89 85 90 81 80 79 91 93 91 86
57 67 73 78 88 89 92 96 94 92 93 96 95 96 97 95 96 95 96 82 87 85 88 82 86 89 87 82 78 89 90 88 87
59 62 65 76 86 94 95 98 95 94 96 96 96 96 96 95 94 94 92 95 91 85 92 85 80 78 87 85 83 77 91 92 89
59 63 59 65 72 81 96 96 98 96 94 96 97 95 97 95 93 93 94 94 95 94 94 95 93 87 84 91 77 80 86 90 95
55 60 66 70 81 84 90 94 97 98 96 97 96 96 96 97 94 95 96 95 94 95 95 94 95 92 82 85 89 88 88 88 87
52 55 71 78 91 91 93 92 92 93 96 97 97 97 96 95 97 97 95 96 94 91 92 94 93 92 93 89 86 91 88 87 87
48 56 67 86 91 92 93 93 93 91 91 92 93 93 96 98 98 97 97 98 96 93 95 97 96 93 93 95 92 97 93 94 95
55 67 72 78 84 90 91 92 93 91 90 91 92 92 95 98 97 97 98 99 99 99 99 99 99 98 97 98 95 100 100 100 97
59 64 64 72 80 85 86 91 92 89 89 92 92 97 98 97 96 98 98 98 98 98 99 99 99 99 99 99 100 100 100 100 99
59 63 66 71 79 82 91 90 92 94 96 96 96 98 98 97 95 96 97 98 99 99 98 99 99 100 100 100 99 100 100 100 100
56 54 63 66 73 88 92 92 94 96 94 91 92 97 96 95 98 95 96 98 98 99 98 99 100 99 100 100 100 100 100 100 100
55 60 67 72 80 89 95 94 94 92 93 89 85 94 97 95 97 98 92 92 97 98 99 99 100 100 100 100 100 100 100 100 100
62 67 63 66 77 88 94 95 94 95 93 92 97 98 98 97 98 99 98 98 98 99 99 100 99 100 100 99 100 100 100 100 100
69 60 65 69 80 87 93 91 93 96 94 94 96 98 99 99 94 97 99 98 99 99 99 99 100 100 100 100 100 100 100 100 100
71 64 71 70 77 78 86 92 95 96 96 96 96 97 98 100 98 99 99 99 99 99 99 100 100 100 100 100 100 100 100 100 100

GFSFLT1_sfc_rhum_165.txt.gz
RH
56 64 62 73 77 81 76 77 75 78 88 90 87 84 88 94 92 92 94 85 94 94 96 95 90 90 92 89 90 92 93 95 95
58 61 66 75 80 81 77 73 78 81 89 93 89 81 84 91 95 95 95 89 82 83 92 94 94 92 93 90 89 92 93 97 95
61 59 63 73 77 80 74 73 77 85 87 89 94 94 84 82 89 92 91 91 92 90 93 93 94 93 95 93 93 93 93 95 95
58 64 58 71 80 79 76 86 89 87 91 90 91 93 96 94 95 96 95 94 90 94 93 94 93 89 93 94 90 92 95 95 94
55 64 69 80 83 85 92 91 95 92 94 94 94 95 97 97 97 97 96 96 95 95 94 95 93 94 93 93 92 87 92 95 90
68 66 79 88 92 93 92 93 96 97 92 92 94 95 93 94 95 97 98 96 89 96 95 95 95 94 89 91 90 90 92 96 96
68 69 79 89 94 94 93 91 93 96 94 92 94 94 93 94 95 95 97 97 97 95 95 94 94 91 82 78 75 80 88 94 96
70 75 79 82 86 92 94 94 95 95 96 96 96 96 96 96 96 95 96 97 97 95 96 88 85 83 87 86 81 71 88 92 93
71 75 74 76 87 94 95 97 97 95 95 96 97 97 96 96 96 96 95 96 96 97 96 96 96 91 81 84 77 82 87 88 94
64 67 74 80 85 94 96 96 97 98 97 97 98 97 95 97 96 96 95 94 97 97 97 97 97 96 90 87 84 89 89 89 86
64 63 68 77 85 91 94 95 97 97 98 98 98 98 97 97 98 96 96 97 98 97 96 95 97 98 98 95 86 91 92 90 93
60 65 76 84 87 93 94 94 94 96 97 97 98 98 98 98 98 97 97 98 99 98 97 97 96 96 96 94 92 96 95 94 96
59 73 80 91 91 94 95 95 96 95 94 95 96 95 96 96 97 98 98 98 99 99 98 98 98 98 98 98 97 100 100 100 98
62 74 84 88 93 94 94 97 95 94 93 93 94 98 98 97 96 98 98 98 98 99 99 99 99 98 100 99 100 99 100 100 99
75 82 87 84 92 94 94 94 94 94 97 97 98 98 97 97 96 98 99 98 98 98 97 98 99 99 100 100 99 100 100 100 100
70 73 79 81 87 95 95 95 95 96 96 95 97 98 98 97 95 97 97 98 99 99 98 98 99 100 100 100 100 99 100 100 100
69 76 80 84 90 94 95 95 95 93 94 93 92 97 98 96 93 98 96 92 95 96 99 99 100 100 100 100 100 100 100 100 100
68 75 72 81 84 91 94 96 94 94 94 94 95 96 99 97 99 97 97 98 98 99 99 100 99 99 100 100 100 99 100 100 100
88 88 75 84 91 94 96 95 94 95 95 95 97 99 100 99 100 99 97 98 98 99 99 99 100 100 100 100 100 100 100 100 100
90 87 71 78 88 91 95 95 94 96 95 95 96 97 99 100 99 100 99 99 99 99 100 100 100 100 100 100 100 100 100 100 100

GFSFLT1_sfc_rhum_168.txt.gz
RH
59 64 63 71 76 77 76 78 78 78 88 89 86 85 88 90 92 90 91 86 95 94 95 93 87 90 91 90 88 88 93 88 94
62 62 65 75 75 76 80 75 79 80 88 89 85 80 84 91 94 92 94 90 86 85 92 92 90 90 90 90 88 88 93 96 93
69 68 70 77 77 77 79 73 78 84 87 83 84 89 80 78 87 92 88 90 92 90 91 89 91 91 90 90 91 90 94 95 92
66 68 70 73 75 80 81 84 87 85 90 91 92 92 92 91 91 90 92 92 90 91 90 91 91 90 90 92 90 91 94 94 90
56 68 70 73 79 86 89 90 92 90 90 89 88 93 95 94 92 93 94 92 91 91 90 91 92 91 91 91 92 90 92 92 86
59 66 78 86 91 93 92 93 93 92 93 89 94 94 93 94 96 96 95 92 89 92 91 90 91 93 92 92 90 91 90 91 89
64 68 82 89 92 92 92 93 95 96 96 94 96 95 95 95 95 96 95 94 94 92 92 90 90 90 89 87 85 84 85 87 90
69 72 82 86 88 92 92 91 92 94 94 94 94 93 94 93 93 93 93 94 95 94 93 90 89 89 89 87 82 70 81 83 85
70 72 76 79 80 85 88 90 91 94 95 96 95 95 96 95 95 94 94 93 94 94 97 96 95 91 88 88 77 82 85 82 81
70 73 77 80 84 91 93 93 93 94 96 97 96 95 95 96 96 95 96 94 94 95 96 97 97 96 92 90 87 88 88 89 79
74 76 79 82 85 92 93 94 96 96 96 97 97 97 96 96 97 96 96 95 95 96 97 97 97 97 96 96 91 94 94 93 90
64 69 72 79 82 90 95 96 96 97 98 98 97 95 95 95 97 97 96 97 97 98 98 98 96 93 93 95 94 99 97 97 96
59 67 74 84 88 91 92 96 96 95 94 94 93 93 93 97 97 96 97 98 98 98 97 97 97 95 96 97 96 100 100 100 99
59 71 82 88 88 89 92 96 94 95 94 93 95 98 97 95 95 96 96 97 98 98 98 99 99 99 99 98 99 99 100 100 100
73 82 89 84 91 92 96 97 93 93 93 96 98 97 96 96 96 95 95 97 95 94 95 96 98 99 100 100 100 100 100 100 100
74 85 85 84 86 93 96 95 92 95 97 97 99 98 97 96 93 93 95 96 97 98 97 97 96 98 99 100 99 99 100 100 100
82 85 86 83 86 91 96 95 94 92 96 95 96 97 97 96 94 97 91 87 92 92 97 99 99 99 99 99 99 98 98 99 99
87 88 84 84 81 88 92 94 94 92 93 94 95 96 99 98 96 91 93 97 96 97 99 100 99 100 100 100 99 100 100 100 99
90 91 92 91 95 92 92 93 92 92 93 93 96 100 99 100 97 92 91 93 97 99 99 100 100 100 100 100 100 100 100 100 100
94 91 88 88 94 90 93 91 90 93 94 93 95 97 99 100 99 97 98 97 94 98 100 100 100 100 100 100 100 100 100 100 100

GFSFLT1_sfc_rhum_171.txt.gz
RH
39 41 44 45 50 50 51 56 56 57 66 72 69 69 73 74 75 61 60 64 57 59 56 56 67 67 69 70 70 69 73 62 63
45 42 43 47 51 52 53 52 59 60 66 74 70 63 68 73 74 72 65 70 66 56 68 60 69 69 70 70 70 71 75 63 73
46 46 46 46 48 52 53 48 52 59 62 65 68 64 63 60 65 71 67 69 73 69 68 71 73 70 69 69 71 72 76 76 70
43 47 46 48 49 50 53 55 55 59 65 77 68 67 65 62 62 63 68 67 68 70 67 72 73 72 69 73 74 74 78 77 72
42 47 47 49 52 55 62 64 62 66 68 72 67 70 70 68 66 67 62 68 67 70 72 69 71 71 72 72 74 76 81 78 64
43 47 51 53 56 64 67 67 70 68 71 68 68 72 69 69 69 69 69 69 68 71 72 71 64 70 75 74 71 72 73 80 78
39 48 52 55 66 63 66 71 74 73 71 73 72 74 73 74 73 71 68 68 73 72 74 74 71 70 71 70 70 69 69 70 74
44 49 54 56 62 67 71 73 75 75 73 78 77 78 79 80 79 79 79 80 78 76 76 74 74 73 72 72 67 57 70 70 68
46 50 52 55 61 66 69 70 72 72 74 78 79 78 79 78 79 80 80 78 78 79 79 80 80 77 75 73 60 74 84 74 65
48 51 54 57 59 61 64 67 70 72 75 77 80 82 79 80 81 81 81 81 85 82 81 78 83 81 78 78 75 87 90 89 63
46 50 54 56 53 58 65 66 69 77 78 81 81 81 80 80 83 82 82 84 86 94 80 79 79 80 83 82 76 92 92 91 74
42 47 49 52 52 63 70 69 74 77 80 82 83 82 83 83 84 86 88 90 87 83 82 80 78 77 81 84 80 99 97 95 76
43 42 46 54 58 64 66 73 72 73 74 75 76 78 82 85 86 84 85 90 92 93 94 88 79 81 79 82 77 96 100 97 68
38 44 50 55 62 62 67 69 66 73 74 76 79 83 86 85 83 85 84 86 90 92 91 94 94 88 86 88 90 90 100 100 94
41 47 52 58 61 65 68 71 69 75 77 78 83 87 86 87 84 75 77 86 88 85 89 92 89 94 97 98 98 100 100 100 100
49 48 56 54 58 70 73 75 70 75 80 81 86 84 83 82 82 80 81 83 84 76 84 83 83 81 94 99 99 99 100 100 100
52 55 62 58 63 70 78 77 74 68 78 79 79 81 83 81 78 80 78 71 78 77 75 84 87 87 87 88 88 92 87 89 87
62 69 65 66 72 69 76 75 72 68 74 73 72 76 84 83 76 77 79 81 80 85 95 94 92 96 96 93 95 97 99 99 97
77 80 81 84 85 78 76 72 69 72 70 72 71 80 90 96 82 78 75 74 80 99 98 100 100 100 93 96 99 100 100 100 100
89 80 82 86 83 81 79 71 67 70 72 72 75 76 88 94 79 95 91 83 77 81 95 100 100 100 100 100 100 100 100 100 100